Time,TemperatureF,DewpointF,PressureIn,WindDirection,WindDirectionDegrees,WindSpeedMPH,WindSpeedGustMPH,Humidity,HourlyPrecipIn,Conditions,Clouds,dailyrainin,SoftwareType,DateUTC
2013-04-24 00:21:00,35.0,9.0,-100.00,NW,325,4.0,8.0,32,0.00,,,-99.99,,2013-04-24 08:21:00,
2013-04-24 00:33:00,35.0,9.0,-100.00,NW,325,4.0,8.0,32,0.00,,,-99.99,,2013-04-24 08:33:00,
2013-04-24 00:42:00,35.0,9.0,-100.00,NW,325,4.0,8.0,32,0.00,,,-99.99,,2013-04-24 08:42:00,
2013-04-24 00:51:00,35.0,8.0,-100.00,NW,315,4.0,9.0,32,0.00,,,-99.99,,2013-04-24 08:51:00,
2013-04-24 01:01:00,35.0,8.0,-100.00,NW,315,4.0,9.0,32,0.00,,,-99.99,,2013-04-24 09:01:00,
2013-04-24 01:11:00,35.0,8.0,-100.00,NW,315,4.0,9.0,32,0.00,,,-99.99,,2013-04-24 09:11:00,
2013-04-24 01:21:00,36.0,9.0,-100.00,West,275,7.0,10.0,31,0.00,,,-99.99,,2013-04-24 09:21:00,
2013-04-24 01:33:00,36.0,9.0,-100.00,West,275,7.0,10.0,31,0.00,,,-99.99,,2013-04-24 09:33:00,
2013-04-24 01:42:00,36.0,9.0,-100.00,West,275,7.0,10.0,31,0.00,,,-99.99,,2013-04-24 09:42:00,
2013-04-24 01:53:00,36.0,9.0,-100.00,West,270,9.0,15.0,31,0.00,,,-99.99,,2013-04-24 09:53:00,
2013-04-24 02:02:00,36.0,9.0,-100.00,West,270,9.0,15.0,31,0.00,,,-99.99,,2013-04-24 10:02:00,
2013-04-24 02:12:00,36.0,9.0,-100.00,West,270,9.0,15.0,31,0.00,,,-99.99,,2013-04-24 10:12:00,
2013-04-24 02:22:00,35.0,8.0,-100.00,West,275,11.0,17.0,31,0.00,,,-99.99,,2013-04-24 10:22:00,
2013-04-24 02:32:00,35.0,8.0,-100.00,West,275,11.0,17.0,31,0.00,,,-99.99,,2013-04-24 10:32:00,
2013-04-24 02:42:00,35.0,8.0,-100.00,West,275,11.0,17.0,31,0.00,,,-99.99,,2013-04-24 10:42:00,
2013-04-24 02:52:00,36.0,9.0,-100.00,West,265,11.0,21.0,31,0.00,,,-99.99,,2013-04-24 10:52:00,
2013-04-24 03:02:00,36.0,9.0,-100.00,West,265,11.0,21.0,31,0.00,,,-99.99,,2013-04-24 11:02:00,
2013-04-24 03:11:00,36.0,9.0,-100.00,West,265,11.0,21.0,31,0.00,,,-99.99,,2013-04-24 11:11:00,
2013-04-24 03:21:00,35.0,9.0,-100.00,West,275,13.0,21.0,33,0.00,,,-99.99,,2013-04-24 11:21:00,
2013-04-24 03:32:00,35.0,9.0,-100.00,West,275,13.0,21.0,33,0.00,,,-99.99,,2013-04-24 11:32:00,
2013-04-24 03:42:00,35.0,9.0,-100.00,West,275,13.0,21.0,33,0.00,,,-99.99,,2013-04-24 11:42:00,
2013-04-24 03:52:00,34.0,10.0,-100.00,WNW,295,12.0,29.0,37,0.00,,,-99.99,,2013-04-24 11:52:00,
2013-04-24 04:02:00,34.0,10.0,-100.00,WNW,295,12.0,29.0,37,0.00,,,-99.99,,2013-04-24 12:02:00,
2013-04-24 04:11:00,34.0,10.0,-100.00,WNW,295,12.0,29.0,37,0.00,,,-99.99,,2013-04-24 12:11:00,
2013-04-24 04:22:00,32.0,15.0,-100.00,NNW,330,7.0,20.0,49,0.00,,,-99.99,,2013-04-24 12:22:00,
2013-04-24 04:32:00,32.0,15.0,-100.00,NNW,330,7.0,20.0,49,0.00,,,-99.99,,2013-04-24 12:32:00,
2013-04-24 04:42:00,32.0,15.0,-100.00,NNW,330,7.0,20.0,49,0.00,,,-99.99,,2013-04-24 12:42:00,
2013-04-24 04:51:00,31.0,18.0,-100.00,NW,325,11.0,26.0,56,0.00,,,-99.99,,2013-04-24 12:51:00,
2013-04-24 05:01:00,31.0,18.0,-100.00,NW,325,11.0,26.0,56,0.00,,,-99.99,,2013-04-24 13:01:00,
2013-04-24 05:12:00,31.0,18.0,-100.00,NW,325,11.0,26.0,56,0.00,,,-99.99,,2013-04-24 13:12:00,
2013-04-24 05:22:00,30.0,25.0,-100.00,NW,305,9.0,21.0,81,0.00,,,-99.99,,2013-04-24 13:22:00,
2013-04-24 05:31:00,30.0,25.0,-100.00,NW,305,9.0,21.0,81,0.00,,,-99.99,,2013-04-24 13:31:00,
2013-04-24 05:41:00,30.0,25.0,-100.00,NW,305,9.0,21.0,81,0.00,,,-99.99,,2013-04-24 13:41:00,
2013-04-24 05:52:00,29.0,26.0,-100.00,West,275,11.0,21.0,89,0.00,,,-99.99,,2013-04-24 13:52:00,
2013-04-24 06:01:00,29.0,26.0,-100.00,West,275,11.0,21.0,89,0.00,,,-99.99,,2013-04-24 14:01:00,
2013-04-24 06:11:00,29.0,26.0,-100.00,West,275,11.0,21.0,89,0.00,,,-99.99,,2013-04-24 14:11:00,
2013-04-24 06:21:00,29.0,24.0,-100.00,West,265,9.0,17.0,79,0.00,,,-99.99,,2013-04-24 14:21:00,
2013-04-24 06:32:00,29.0,24.0,-100.00,West,265,9.0,17.0,79,0.00,,,-99.99,,2013-04-24 14:32:00,
2013-04-24 06:41:00,29.0,24.0,-100.00,West,265,9.0,17.0,79,0.00,,,-99.99,,2013-04-24 14:41:00,
2013-04-24 06:51:00,30.0,23.0,-100.00,West,275,12.0,18.0,75,0.00,,,-99.99,,2013-04-24 14:51:00,
2013-04-24 07:01:00,30.0,23.0,-100.00,West,275,12.0,18.0,75,0.00,,,-99.99,,2013-04-24 15:01:00,
2013-04-24 07:11:00,30.0,23.0,-100.00,West,275,12.0,18.0,75,0.00,,,-99.99,,2013-04-24 15:11:00,
2013-04-24 07:21:00,29.0,23.0,-100.00,WSW,245,9.0,18.0,77,0.00,,,-99.99,,2013-04-24 15:21:00,
2013-04-24 07:33:00,29.0,23.0,-100.00,WSW,245,9.0,18.0,77,0.00,,,-99.99,,2013-04-24 15:33:00,
2013-04-24 07:42:00,29.0,23.0,-100.00,WSW,245,9.0,18.0,77,0.00,,,-99.99,,2013-04-24 15:42:00,
2013-04-24 07:52:00,29.0,25.0,-100.00,WSW,255,11.0,23.0,86,0.00,,,-99.99,,2013-04-24 15:52:00,
2013-04-24 08:03:00,29.0,25.0,-100.00,WSW,255,11.0,23.0,86,0.00,,,-99.99,,2013-04-24 16:03:00,
2013-04-24 08:12:00,29.0,25.0,-100.00,WSW,255,11.0,23.0,86,0.00,,,-99.99,,2013-04-24 16:12:00,
2013-04-24 08:23:00,28.0,26.0,-100.00,West,270,17.0,23.0,91,0.00,,,-99.99,,2013-04-24 16:23:00,
2013-04-24 08:32:00,28.0,26.0,-100.00,West,270,17.0,23.0,91,0.00,,,-99.99,,2013-04-24 16:32:00,
2013-04-24 08:42:00,28.0,26.0,-100.00,West,270,17.0,23.0,91,0.00,,,-99.99,,2013-04-24 16:42:00,
2013-04-24 08:52:00,28.0,26.0,-100.00,West,270,12.0,22.0,90,0.00,,,-99.99,,2013-04-24 16:52:00,
2013-04-24 09:02:00,28.0,26.0,-100.00,West,270,12.0,22.0,90,0.00,,,-99.99,,2013-04-24 17:02:00,
2013-04-24 09:12:00,28.0,26.0,-100.00,West,270,12.0,22.0,90,0.00,,,-99.99,,2013-04-24 17:12:00,
2013-04-24 09:22:00,28.0,26.0,-100.00,West,280,9.0,19.0,94,0.00,,,0.00,,2013-04-24 17:22:00,
2013-04-24 09:32:00,28.0,26.0,-100.00,West,280,9.0,19.0,94,0.00,,,0.00,,2013-04-24 17:32:00,
2013-04-24 09:42:00,28.0,26.0,-100.00,West,280,9.0,19.0,94,0.00,,,0.00,,2013-04-24 17:42:00,
2013-04-24 09:51:00,27.0,26.0,-100.00,West,275,11.0,19.0,94,0.00,,,0.00,,2013-04-24 17:51:00,
2013-04-24 10:02:00,27.0,26.0,-100.00,West,275,11.0,19.0,94,0.00,,,0.00,,2013-04-24 18:02:00,
2013-04-24 10:12:00,27.0,26.0,-100.00,West,275,11.0,19.0,94,0.00,,,0.00,,2013-04-24 18:12:00,
2013-04-24 10:21:00,27.0,26.0,-100.00,West,275,12.0,27.0,94,0.00,,,0.00,,2013-04-24 18:21:00,
2013-04-24 10:33:00,27.0,26.0,-100.00,West,275,12.0,27.0,94,0.00,,,0.00,,2013-04-24 18:33:00,
2013-04-24 10:42:00,27.0,26.0,-100.00,West,275,12.0,27.0,94,0.00,,,0.00,,2013-04-24 18:42:00,
2013-04-24 10:52:00,27.0,26.0,-100.00,West,275,10.0,20.0,94,0.00,,,0.00,,2013-04-24 18:52:00,
2013-04-24 11:01:00,27.0,26.0,-100.00,West,275,10.0,20.0,94,0.00,,,0.00,,2013-04-24 19:01:00,
2013-04-24 11:11:00,27.0,26.0,-100.00,West,275,10.0,20.0,94,0.00,,,0.00,,2013-04-24 19:11:00,
2013-04-24 11:21:00,27.0,26.0,-100.00,WNW,290,11.0,17.0,94,0.00,,,0.00,,2013-04-24 19:21:00,
2013-04-24 11:31:00,27.0,26.0,-100.00,WNW,290,11.0,17.0,94,0.00,,,0.00,,2013-04-24 19:31:00,
2013-04-24 11:42:00,27.0,26.0,-100.00,WNW,290,11.0,17.0,94,0.00,,,0.00,,2013-04-24 19:42:00,
2013-04-24 11:52:00,27.0,25.0,-100.00,NW,305,10.0,17.0,91,0.00,,,0.00,,2013-04-24 19:52:00,
2013-04-24 12:01:00,27.0,25.0,-100.00,NW,305,10.0,17.0,91,0.00,,,0.00,,2013-04-24 20:01:00,
2013-04-24 12:11:00,27.0,25.0,-100.00,NW,305,10.0,17.0,91,0.00,,,0.00,,2013-04-24 20:11:00,
2013-04-24 12:21:00,27.0,25.0,-100.00,WNW,285,9.0,21.0,88,0.00,,,0.00,,2013-04-24 20:21:00,
2013-04-24 12:32:00,27.0,25.0,-100.00,WNW,285,9.0,21.0,88,0.00,,,0.00,,2013-04-24 20:32:00,
2013-04-24 12:42:00,27.0,25.0,-100.00,WNW,285,9.0,21.0,88,0.00,,,0.00,,2013-04-24 20:42:00,
2013-04-24 12:51:00,28.0,25.0,-100.00,West,270,9.0,17.0,89,0.00,,,0.00,,2013-04-24 20:51:00,
2013-04-24 13:02:00,28.0,25.0,-100.00,West,270,9.0,17.0,89,0.00,,,0.00,,2013-04-24 21:02:00,
2013-04-24 13:11:00,28.0,25.0,-100.00,West,270,9.0,17.0,89,0.00,,,0.00,,2013-04-24 21:11:00,
2013-04-24 13:21:00,29.0,25.0,-100.00,NW,310,7.0,18.0,84,0.00,,,0.00,,2013-04-24 21:21:00,
2013-04-24 13:33:00,29.0,25.0,-100.00,NW,310,7.0,18.0,84,0.00,,,0.00,,2013-04-24 21:33:00,
2013-04-24 13:42:00,29.0,25.0,-100.00,NW,310,7.0,18.0,84,0.00,,,0.00,,2013-04-24 21:42:00,
2013-04-24 13:52:00,29.0,24.0,-100.00,WNW,290,7.0,17.0,82,0.00,,,0.00,,2013-04-24 21:52:00,
2013-04-24 14:03:00,29.0,24.0,-100.00,WNW,290,7.0,17.0,82,0.00,,,0.00,,2013-04-24 22:03:00,
2013-04-24 14:12:00,29.0,24.0,-100.00,WNW,290,7.0,17.0,82,0.00,,,0.00,,2013-04-24 22:12:00,
2013-04-24 14:22:00,29.0,23.0,-100.00,NW,315,9.0,17.0,79,0.00,,,0.00,,2013-04-24 22:22:00,
2013-04-24 14:33:00,29.0,23.0,-100.00,NW,315,9.0,17.0,79,0.00,,,0.00,,2013-04-24 22:33:00,
2013-04-24 14:42:00,29.0,23.0,-100.00,NW,315,9.0,17.0,79,0.00,,,0.00,,2013-04-24 22:42:00,
2013-04-24 14:52:00,29.0,22.0,-100.00,WNW,300,11.0,19.0,76,0.00,,,0.00,,2013-04-24 22:52:00,
2013-04-24 15:02:00,29.0,22.0,-100.00,WNW,300,11.0,19.0,76,0.00,,,0.00,,2013-04-24 23:02:00,
2013-04-24 15:12:00,29.0,22.0,-100.00,WNW,300,11.0,19.0,76,0.00,,,0.00,,2013-04-24 23:12:00,
2013-04-24 15:21:00,29.0,22.0,-100.00,WNW,290,7.0,16.0,73,0.00,,,0.00,,2013-04-24 23:21:00,
2013-04-24 15:32:00,29.0,22.0,-100.00,WNW,290,7.0,16.0,73,0.00,,,0.00,,2013-04-24 23:32:00,
2013-04-24 15:42:00,29.0,22.0,-100.00,WNW,290,7.0,16.0,73,0.00,,,0.00,,2013-04-24 23:42:00,
2013-04-24 15:51:00,30.0,21.0,-100.00,NW,305,10.0,19.0,69,0.00,,,0.00,,2013-04-24 23:51:00,
2013-04-24 16:01:00,30.0,21.0,-100.00,NW,305,10.0,19.0,69,0.00,,,0.00,,2013-04-25 00:01:00,
2013-04-24 16:12:00,30.0,21.0,-100.00,NW,305,10.0,19.0,69,0.00,,,0.00,,2013-04-25 00:12:00,
2013-04-24 16:22:00,30.0,21.0,-100.00,WNW,285,10.0,20.0,67,0.00,,,0.00,,2013-04-25 00:22:00,
2013-04-24 16:32:00,30.0,21.0,-100.00,WNW,285,10.0,20.0,67,0.00,,,0.00,,2013-04-25 00:32:00,
2013-04-24 16:41:00,30.0,21.0,-100.00,WNW,285,10.0,20.0,67,0.00,,,0.00,,2013-04-25 00:41:00,
2013-04-24 16:52:00,30.0,21.0,-100.00,West,280,6.0,14.0,67,0.00,,,0.00,,2013-04-25 00:52:00,
2013-04-24 17:01:00,30.0,21.0,-100.00,West,280,6.0,14.0,67,0.00,,,0.00,,2013-04-25 01:01:00,
2013-04-24 17:11:00,30.0,21.0,-100.00,West,280,6.0,14.0,67,0.00,,,0.00,,2013-04-25 01:11:00,
2013-04-24 17:22:00,30.0,21.0,-100.00,WNW,290,6.0,14.0,69,0.00,,,0.00,,2013-04-25 01:22:00,
2013-04-24 17:32:00,30.0,21.0,-100.00,WNW,290,6.0,14.0,69,0.00,,,0.00,,2013-04-25 01:32:00,
2013-04-24 17:42:00,30.0,21.0,-100.00,WNW,290,6.0,14.0,69,0.00,,,0.00,,2013-04-25 01:42:00,
2013-04-24 17:50:00,29.0,24.0,-100.00,WNW,295,9.0,16.0,79,0.00,,,0.00,,2013-04-25 01:50:00,
2013-04-24 17:52:00,30.0,23.0,-100.00,NW,315,7.0,14.0,74,0.00,,,0.00,,2013-04-25 01:52:00,
2013-04-24 18:01:00,30.0,23.0,-100.00,NW,315,7.0,14.0,74,0.00,,,0.00,,2013-04-25 02:01:00,
2013-04-24 18:11:00,30.0,23.0,-100.00,NW,315,7.0,14.0,74,0.00,,,0.00,,2013-04-25 02:11:00,
2013-04-24 18:22:00,29.0,24.0,-100.00,WNW,295,9.0,16.0,79,0.00,,,0.00,,2013-04-25 02:22:00,
2013-04-24 18:32:00,29.0,24.0,-100.00,WNW,295,9.0,16.0,79,0.00,,,0.00,,2013-04-25 02:32:00,
2013-04-24 18:42:00,29.0,24.0,-100.00,WNW,295,9.0,16.0,79,0.00,,,0.00,,2013-04-25 02:42:00,
2013-04-24 19:02:00,28.0,24.0,-100.00,WNW,290,9.0,14.0,83,0.00,,,0.00,,2013-04-25 03:02:00,
2013-04-24 19:11:00,28.0,24.0,-100.00,WNW,290,9.0,14.0,83,0.00,,,0.00,,2013-04-25 03:11:00,
2013-04-24 19:22:00,28.0,24.0,-100.00,WNW,300,9.0,14.0,82,0.00,,,0.00,,2013-04-25 03:22:00,
2013-04-24 19:33:00,28.0,24.0,-100.00,WNW,300,9.0,14.0,82,0.00,,,0.00,,2013-04-25 03:33:00,
2013-04-24 19:42:00,28.0,24.0,-100.00,WNW,300,9.0,14.0,82,0.00,,,0.00,,2013-04-25 03:42:00,
2013-04-24 19:52:00,29.0,23.0,-100.00,West,275,7.0,12.0,78,0.00,,,0.00,,2013-04-25 03:52:00,
2013-04-24 20:03:00,29.0,23.0,-100.00,West,275,7.0,12.0,78,0.00,,,0.00,,2013-04-25 04:03:00,
2013-04-24 20:12:00,29.0,23.0,-100.00,West,275,7.0,12.0,78,0.00,,,0.00,,2013-04-25 04:12:00,
2013-04-24 20:22:00,29.0,22.0,-100.00,NW,325,8.0,17.0,73,0.00,,,0.00,,2013-04-25 04:22:00,
2013-04-24 20:32:00,29.0,22.0,-100.00,NW,325,8.0,17.0,73,0.00,,,0.00,,2013-04-25 04:32:00,
2013-04-24 20:43:00,29.0,22.0,-100.00,NW,325,8.0,17.0,73,0.00,,,0.00,,2013-04-25 04:43:00,
2013-04-24 20:52:00,30.0,21.0,-100.00,West,280,7.0,16.0,68,0.00,,,0.00,,2013-04-25 04:52:00,
2013-04-24 21:02:00,30.0,21.0,-100.00,West,280,7.0,16.0,68,0.00,,,0.00,,2013-04-25 05:02:00,
2013-04-24 21:12:00,30.0,21.0,-100.00,West,280,7.0,16.0,68,0.00,,,0.00,,2013-04-25 05:12:00,
2013-04-24 21:21:00,29.0,20.0,-100.00,NW,305,7.0,16.0,69,0.00,,,0.00,,2013-04-25 05:21:00,
2013-04-24 21:32:00,29.0,20.0,-100.00,NW,305,7.0,16.0,69,0.00,,,0.00,,2013-04-25 05:32:00,
2013-04-24 21:42:00,29.0,20.0,-100.00,NW,305,7.0,16.0,69,0.00,,,0.00,,2013-04-25 05:42:00,
2013-04-24 21:51:00,28.0,20.0,-100.00,West,280,6.0,9.0,69,0.00,,,0.00,,2013-04-25 05:51:00,
2013-04-24 22:01:00,28.0,20.0,-100.00,West,280,6.0,9.0,69,0.00,,,0.00,,2013-04-25 06:01:00,
2013-04-24 22:11:00,28.0,20.0,-100.00,West,280,6.0,9.0,69,0.00,,,0.00,,2013-04-25 06:11:00,
2013-04-24 22:22:00,27.0,19.0,-100.00,NW,310,4.0,9.0,70,0.00,,,0.00,,2013-04-25 06:22:00,
2013-04-24 22:31:00,27.0,19.0,-100.00,NW,310,4.0,9.0,70,0.00,,,0.00,,2013-04-25 06:31:00,
2013-04-24 22:41:00,27.0,19.0,-100.00,NW,310,4.0,9.0,70,0.00,,,0.00,,2013-04-25 06:41:00,
2013-04-24 22:52:00,27.0,19.0,-100.00,NW,310,6.0,7.0,72,0.00,,,0.00,,2013-04-25 06:52:00,
2013-04-24 23:01:00,27.0,19.0,-100.00,NW,310,6.0,7.0,72,0.00,,,0.00,,2013-04-25 07:01:00,
2013-04-24 23:11:00,27.0,19.0,-100.00,NW,310,6.0,7.0,72,0.00,,,0.00,,2013-04-25 07:11:00,
2013-04-24 23:21:00,28.0,18.0,-100.00,NW,305,3.0,9.0,67,0.00,,,0.00,,2013-04-25 07:21:00,
2013-04-24 23:31:00,28.0,18.0,-100.00,NW,305,3.0,9.0,67,0.00,,,0.00,,2013-04-25 07:31:00,
2013-04-24 23:42:00,28.0,18.0,-100.00,NW,305,3.0,9.0,67,0.00,,,0.00,,2013-04-25 07:42:00,
2013-04-24 23:52:00,28.0,18.0,-100.00,NW,315,4.0,7.0,65,0.00,,,0.00,,2013-04-25 07:52:00,